<?xml version="1.0" encoding="UTF-8" standalone="no" ?>
<gpx xmlns="http://www.topografix.com/GPX/1/1" xmlns:xsi="http://www.w3.org/2001/XMLSchema-instance" xsi:schemaLocation="http://www.topografix.com/GPX/1/1 http://www.topografix.com/GPX/1/1/gpx.xsd" version="1.1" creator="VisuGPX - https://www.visugpx.com">
  <metadata>
    <name>Moirax, sur la trace des pélerins de St Jacques</name>
    <desc><![CDATA[Randonnée pédestre de 6.7km au départ de Moirax. Circuit à retrouver sur le site du CDT 47]]></desc>
  </metadata>
  <trk>
    <name><![CDATA[Moirax]]></name>
    <trkseg>
      <trkpt lat="44.1415" lon="0.60901">
        <ele>154</ele>
        <time>2005-09-05T12:15:58Z</time>
      </trkpt>
      <trkpt lat="44.14141" lon="0.60898">
        <ele>155</ele>
        <time>2005-09-05T12:15:58Z</time>
      </trkpt>
      <trkpt lat="44.14088" lon="0.60896">
        <ele>157</ele>
        <time>2005-09-05T12:15:58Z</time>
      </trkpt>
      <trkpt lat="44.14071" lon="0.60893">
        <ele>157</ele>
        <time>2005-09-05T12:15:58Z</time>
      </trkpt>
      <trkpt lat="44.14051" lon="0.60887">
        <ele>158</ele>
        <time>2005-09-05T12:15:58Z</time>
      </trkpt>
      <trkpt lat="44.14011" lon="0.6087">
        <ele>157</ele>
        <time>2005-09-05T12:15:58Z</time>
      </trkpt>
      <trkpt lat="44.14009" lon="0.609">
        <ele>157</ele>
        <time>2005-09-05T12:15:58Z</time>
      </trkpt>
      <trkpt lat="44.14002" lon="0.60933">
        <ele>157</ele>
        <time>2005-09-05T12:15:58Z</time>
      </trkpt>
      <trkpt lat="44.13995" lon="0.60962">
        <ele>156</ele>
        <time>2005-09-05T12:15:58Z</time>
      </trkpt>
      <trkpt lat="44.13979" lon="0.60987">
        <ele>155</ele>
        <time>2005-09-05T12:15:58Z</time>
      </trkpt>
      <trkpt lat="44.13966" lon="0.61005">
        <ele>154</ele>
        <time>2005-09-05T12:15:58Z</time>
      </trkpt>
      <trkpt lat="44.13954" lon="0.61014">
        <ele>152</ele>
        <time>2005-09-05T12:15:58Z</time>
      </trkpt>
      <trkpt lat="44.13944" lon="0.61015">
        <ele>152</ele>
        <time>2005-09-05T12:15:58Z</time>
      </trkpt>
      <trkpt lat="44.13929" lon="0.61009">
        <ele>152</ele>
        <time>2005-09-05T12:15:58Z</time>
      </trkpt>
      <trkpt lat="44.13909" lon="0.61007">
        <ele>151</ele>
        <time>2005-09-05T12:15:58Z</time>
      </trkpt>
      <trkpt lat="44.13891" lon="0.61007">
        <ele>149</ele>
        <time>2005-09-05T12:15:58Z</time>
      </trkpt>
      <trkpt lat="44.13872" lon="0.61015">
        <ele>147</ele>
        <time>2005-09-05T12:15:58Z</time>
      </trkpt>
      <trkpt lat="44.13857" lon="0.61024">
        <ele>144</ele>
        <time>2005-09-05T12:15:58Z</time>
      </trkpt>
      <trkpt lat="44.1385" lon="0.61035">
        <ele>142</ele>
        <time>2005-09-05T12:15:58Z</time>
      </trkpt>
      <trkpt lat="44.13848" lon="0.61044">
        <ele>141</ele>
        <time>2005-09-05T12:15:58Z</time>
      </trkpt>
      <trkpt lat="44.13849" lon="0.61057">
        <ele>140</ele>
        <time>2005-09-05T12:15:58Z</time>
      </trkpt>
      <trkpt lat="44.13854" lon="0.61082">
        <ele>138</ele>
        <time>2005-09-05T12:15:58Z</time>
      </trkpt>
      <trkpt lat="44.13869" lon="0.61124">
        <ele>133</ele>
        <time>2005-09-05T12:15:58Z</time>
      </trkpt>
      <trkpt lat="44.13876" lon="0.6114">
        <ele>132</ele>
        <time>2005-09-05T12:15:58Z</time>
      </trkpt>
      <trkpt lat="44.13869" lon="0.61209">
        <ele>127</ele>
        <time>2005-09-05T12:15:58Z</time>
      </trkpt>
      <trkpt lat="44.1385" lon="0.61316">
        <ele>121</ele>
        <time>2005-09-05T12:15:58Z</time>
      </trkpt>
      <trkpt lat="44.1384" lon="0.61334">
        <ele>119</ele>
        <time>2005-09-05T12:15:58Z</time>
      </trkpt>
      <trkpt lat="44.13819" lon="0.6134">
        <ele>117</ele>
        <time>2005-09-05T12:15:58Z</time>
      </trkpt>
      <trkpt lat="44.13801" lon="0.61338">
        <ele>116</ele>
        <time>2005-09-05T12:15:58Z</time>
      </trkpt>
      <trkpt lat="44.13789" lon="0.6134">
        <ele>116</ele>
        <time>2005-09-05T12:15:58Z</time>
      </trkpt>
      <trkpt lat="44.13764" lon="0.61357">
        <ele>117</ele>
        <time>2005-09-05T12:15:58Z</time>
      </trkpt>
      <trkpt lat="44.13744" lon="0.61374">
        <ele>119</ele>
        <time>2005-09-05T12:15:58Z</time>
      </trkpt>
      <trkpt lat="44.13717" lon="0.61389">
        <ele>122</ele>
        <time>2005-09-05T12:15:58Z</time>
      </trkpt>
      <trkpt lat="44.13692" lon="0.61397">
        <ele>124</ele>
        <time>2005-09-05T12:15:58Z</time>
      </trkpt>
      <trkpt lat="44.13668" lon="0.61405">
        <ele>123</ele>
        <time>2005-09-05T12:15:58Z</time>
      </trkpt>
      <trkpt lat="44.13632" lon="0.61423">
        <ele>122</ele>
        <time>2005-09-05T12:15:58Z</time>
      </trkpt>
      <trkpt lat="44.13615" lon="0.61438">
        <ele>120</ele>
        <time>2005-09-05T12:15:58Z</time>
      </trkpt>
      <trkpt lat="44.13599" lon="0.61451">
        <ele>118</ele>
        <time>2005-09-05T12:15:58Z</time>
      </trkpt>
      <trkpt lat="44.13589" lon="0.61467">
        <ele>116</ele>
        <time>2005-09-05T12:15:58Z</time>
      </trkpt>
      <trkpt lat="44.13589" lon="0.61485">
        <ele>116</ele>
        <time>2005-09-05T12:15:58Z</time>
      </trkpt>
      <trkpt lat="44.136" lon="0.61542">
        <ele>115</ele>
        <time>2005-09-05T12:15:58Z</time>
      </trkpt>
      <trkpt lat="44.13605" lon="0.61577">
        <ele>116</ele>
        <time>2005-09-05T12:15:58Z</time>
      </trkpt>
      <trkpt lat="44.13607" lon="0.6159">
        <ele>116</ele>
        <time>2005-09-05T12:15:58Z</time>
      </trkpt>
      <trkpt lat="44.13577" lon="0.61593">
        <ele>111</ele>
        <time>2005-09-05T12:15:58Z</time>
      </trkpt>
      <trkpt lat="44.13547" lon="0.6159">
        <ele>105</ele>
        <time>2005-09-05T12:15:58Z</time>
      </trkpt>
      <trkpt lat="44.1353" lon="0.61594">
        <ele>101</ele>
        <time>2005-09-05T12:15:58Z</time>
      </trkpt>
      <trkpt lat="44.13511" lon="0.61599">
        <ele>96</ele>
        <time>2005-09-05T12:15:58Z</time>
      </trkpt>
      <trkpt lat="44.13473" lon="0.61619">
        <ele>88</ele>
        <time>2005-09-05T12:15:58Z</time>
      </trkpt>
      <trkpt lat="44.13459" lon="0.61623">
        <ele>86</ele>
        <time>2005-09-05T12:15:58Z</time>
      </trkpt>
      <trkpt lat="44.1342" lon="0.61612">
        <ele>82</ele>
        <time>2005-09-05T12:15:58Z</time>
      </trkpt>
      <trkpt lat="44.13406" lon="0.6161">
        <ele>80</ele>
        <time>2005-09-05T12:15:58Z</time>
      </trkpt>
      <trkpt lat="44.13389" lon="0.61613">
        <ele>78</ele>
        <time>2005-09-05T12:15:58Z</time>
      </trkpt>
      <trkpt lat="44.13368" lon="0.61623">
        <ele>76</ele>
        <time>2005-09-05T12:15:58Z</time>
      </trkpt>
      <trkpt lat="44.13355" lon="0.61624">
        <ele>74</ele>
        <time>2005-09-05T12:15:58Z</time>
      </trkpt>
      <trkpt lat="44.13341" lon="0.61625">
        <ele>72</ele>
        <time>2005-09-05T12:15:58Z</time>
      </trkpt>
      <trkpt lat="44.13328" lon="0.61624">
        <ele>72</ele>
        <time>2005-09-05T12:15:58Z</time>
      </trkpt>
      <trkpt lat="44.13318" lon="0.61613">
        <ele>73</ele>
        <time>2005-09-05T12:15:58Z</time>
      </trkpt>
      <trkpt lat="44.13317" lon="0.61597">
        <ele>72</ele>
        <time>2005-09-05T12:15:58Z</time>
      </trkpt>
      <trkpt lat="44.13312" lon="0.61569">
        <ele>72</ele>
        <time>2005-09-05T12:15:58Z</time>
      </trkpt>
      <trkpt lat="44.13306" lon="0.61555">
        <ele>73</ele>
        <time>2005-09-05T12:15:58Z</time>
      </trkpt>
      <trkpt lat="44.13296" lon="0.6154">
        <ele>74</ele>
        <time>2005-09-05T12:15:58Z</time>
      </trkpt>
      <trkpt lat="44.13273" lon="0.61536">
        <ele>77</ele>
        <time>2005-09-05T12:15:58Z</time>
      </trkpt>
      <trkpt lat="44.13255" lon="0.61539">
        <ele>80</ele>
        <time>2005-09-05T12:15:58Z</time>
      </trkpt>
      <trkpt lat="44.13237" lon="0.61512">
        <ele>82</ele>
        <time>2005-09-05T12:15:58Z</time>
      </trkpt>
      <trkpt lat="44.13216" lon="0.61479">
        <ele>84</ele>
        <time>2005-09-05T12:15:58Z</time>
      </trkpt>
      <trkpt lat="44.13198" lon="0.61467">
        <ele>85</ele>
        <time>2005-09-05T12:15:58Z</time>
      </trkpt>
      <trkpt lat="44.13189" lon="0.61469">
        <ele>87</ele>
        <time>2005-09-05T12:15:58Z</time>
      </trkpt>
      <trkpt lat="44.1317" lon="0.61499">
        <ele>92</ele>
        <time>2005-09-05T12:15:58Z</time>
      </trkpt>
      <trkpt lat="44.13164" lon="0.61508">
        <ele>94</ele>
        <time>2005-09-05T12:15:58Z</time>
      </trkpt>
      <trkpt lat="44.13153" lon="0.61521">
        <ele>96</ele>
        <time>2005-09-05T12:15:58Z</time>
      </trkpt>
      <trkpt lat="44.13097" lon="0.61465">
        <ele>96</ele>
        <time>2005-09-05T12:15:58Z</time>
      </trkpt>
      <trkpt lat="44.13081" lon="0.61483">
        <ele>100</ele>
        <time>2005-09-05T12:15:58Z</time>
      </trkpt>
      <trkpt lat="44.13046" lon="0.61438">
        <ele>106</ele>
        <time>2005-09-05T12:15:58Z</time>
      </trkpt>
      <trkpt lat="44.1304" lon="0.61436">
        <ele>107</ele>
        <time>2005-09-05T12:15:58Z</time>
      </trkpt>
      <trkpt lat="44.12996" lon="0.61474">
        <ele>111</ele>
        <time>2005-09-05T12:15:58Z</time>
      </trkpt>
      <trkpt lat="44.12978" lon="0.61506">
        <ele>113</ele>
        <time>2005-09-05T12:15:58Z</time>
      </trkpt>
      <trkpt lat="44.1296" lon="0.61521">
        <ele>114</ele>
        <time>2005-09-05T12:15:58Z</time>
      </trkpt>
      <trkpt lat="44.12923" lon="0.61531">
        <ele>117</ele>
        <time>2005-09-05T12:15:58Z</time>
      </trkpt>
      <trkpt lat="44.12911" lon="0.61544">
        <ele>118</ele>
        <time>2005-09-05T12:15:58Z</time>
      </trkpt>
      <trkpt lat="44.12897" lon="0.61587">
        <ele>119</ele>
        <time>2005-09-05T12:15:58Z</time>
      </trkpt>
      <trkpt lat="44.12866" lon="0.61618">
        <ele>124</ele>
        <time>2005-09-05T12:15:58Z</time>
      </trkpt>
      <trkpt lat="44.12882" lon="0.61666">
        <ele>122</ele>
        <time>2005-09-05T12:15:58Z</time>
      </trkpt>
      <trkpt lat="44.12905" lon="0.61725">
        <ele>122</ele>
        <time>2005-09-05T12:15:58Z</time>
      </trkpt>
      <trkpt lat="44.12823" lon="0.61915">
        <ele>113</ele>
        <time>2005-09-05T12:15:58Z</time>
      </trkpt>
      <trkpt lat="44.12933" lon="0.61957">
        <ele>116</ele>
        <time>2005-09-05T12:15:58Z</time>
      </trkpt>
      <trkpt lat="44.12951" lon="0.61983">
        <ele>114</ele>
        <time>2005-09-05T12:15:58Z</time>
      </trkpt>
      <trkpt lat="44.12978" lon="0.62026">
        <ele>112</ele>
        <time>2005-09-05T12:15:58Z</time>
      </trkpt>
      <trkpt lat="44.12989" lon="0.62063">
        <ele>107</ele>
        <time>2005-09-05T12:15:58Z</time>
      </trkpt>
      <trkpt lat="44.13" lon="0.62102">
        <ele>102</ele>
        <time>2005-09-05T12:15:58Z</time>
      </trkpt>
      <trkpt lat="44.1301" lon="0.62159">
        <ele>97</ele>
        <time>2005-09-05T12:15:58Z</time>
      </trkpt>
      <trkpt lat="44.1302" lon="0.62198">
        <ele>94</ele>
        <time>2005-09-05T12:15:58Z</time>
      </trkpt>
      <trkpt lat="44.1303" lon="0.62246">
        <ele>91</ele>
        <time>2005-09-05T12:15:58Z</time>
      </trkpt>
      <trkpt lat="44.13034" lon="0.62279">
        <ele>88</ele>
        <time>2005-09-05T12:15:58Z</time>
      </trkpt>
      <trkpt lat="44.13048" lon="0.62289">
        <ele>89</ele>
        <time>2005-09-05T12:15:58Z</time>
      </trkpt>
      <trkpt lat="44.1308" lon="0.6231">
        <ele>87</ele>
        <time>2005-09-05T12:15:58Z</time>
      </trkpt>
      <trkpt lat="44.13123" lon="0.62346">
        <ele>86</ele>
        <time>2005-09-05T12:15:58Z</time>
      </trkpt>
      <trkpt lat="44.13165" lon="0.62368">
        <ele>86</ele>
        <time>2005-09-05T12:15:58Z</time>
      </trkpt>
      <trkpt lat="44.13209" lon="0.62389">
        <ele>83</ele>
        <time>2005-09-05T12:15:58Z</time>
      </trkpt>
      <trkpt lat="44.13263" lon="0.62415">
        <ele>80</ele>
        <time>2005-09-05T12:15:58Z</time>
      </trkpt>
      <trkpt lat="44.13287" lon="0.6243">
        <ele>79</ele>
        <time>2005-09-05T12:15:58Z</time>
      </trkpt>
      <trkpt lat="44.13293" lon="0.62441">
        <ele>78</ele>
        <time>2005-09-05T12:15:58Z</time>
      </trkpt>
      <trkpt lat="44.1331" lon="0.62442">
        <ele>78</ele>
        <time>2005-09-05T12:15:58Z</time>
      </trkpt>
      <trkpt lat="44.13338" lon="0.62424">
        <ele>80</ele>
        <time>2005-09-05T12:15:58Z</time>
      </trkpt>
      <trkpt lat="44.13397" lon="0.62372">
        <ele>82</ele>
        <time>2005-09-05T12:15:58Z</time>
      </trkpt>
      <trkpt lat="44.1343" lon="0.62343">
        <ele>81</ele>
        <time>2005-09-05T12:15:58Z</time>
      </trkpt>
      <trkpt lat="44.13453" lon="0.62313">
        <ele>79</ele>
        <time>2005-09-05T12:15:58Z</time>
      </trkpt>
      <trkpt lat="44.13496" lon="0.62262">
        <ele>75</ele>
        <time>2005-09-05T12:15:58Z</time>
      </trkpt>
      <trkpt lat="44.13539" lon="0.62221">
        <ele>75</ele>
        <time>2005-09-05T12:15:58Z</time>
      </trkpt>
      <trkpt lat="44.13567" lon="0.62194">
        <ele>73</ele>
        <time>2005-09-05T12:15:58Z</time>
      </trkpt>
      <trkpt lat="44.13587" lon="0.62176">
        <ele>73</ele>
        <time>2005-09-05T12:15:58Z</time>
      </trkpt>
      <trkpt lat="44.13602" lon="0.62176">
        <ele>74</ele>
        <time>2005-09-05T12:15:58Z</time>
      </trkpt>
      <trkpt lat="44.13614" lon="0.62166">
        <ele>74</ele>
        <time>2005-09-05T12:15:58Z</time>
      </trkpt>
      <trkpt lat="44.13665" lon="0.62174">
        <ele>72</ele>
        <time>2005-09-05T12:15:58Z</time>
      </trkpt>
      <trkpt lat="44.13689" lon="0.62187">
        <ele>71</ele>
        <time>2005-09-05T12:15:58Z</time>
      </trkpt>
      <trkpt lat="44.1371" lon="0.622">
        <ele>71</ele>
        <time>2005-09-05T12:15:58Z</time>
      </trkpt>
      <trkpt lat="44.13736" lon="0.62246">
        <ele>73</ele>
        <time>2005-09-05T12:15:58Z</time>
      </trkpt>
      <trkpt lat="44.13764" lon="0.62282">
        <ele>75</ele>
        <time>2005-09-05T12:15:58Z</time>
      </trkpt>
      <trkpt lat="44.13808" lon="0.62329">
        <ele>79</ele>
        <time>2005-09-05T12:15:58Z</time>
      </trkpt>
      <trkpt lat="44.13846" lon="0.62365">
        <ele>78</ele>
        <time>2005-09-05T12:15:58Z</time>
      </trkpt>
      <trkpt lat="44.13866" lon="0.62378">
        <ele>79</ele>
        <time>2005-09-05T12:15:58Z</time>
      </trkpt>
      <trkpt lat="44.13884" lon="0.62383">
        <ele>79</ele>
        <time>2005-09-05T12:15:58Z</time>
      </trkpt>
      <trkpt lat="44.13901" lon="0.62386">
        <ele>80</ele>
        <time>2005-09-05T12:15:58Z</time>
      </trkpt>
      <trkpt lat="44.13922" lon="0.62385">
        <ele>78</ele>
        <time>2005-09-05T12:15:58Z</time>
      </trkpt>
      <trkpt lat="44.13945" lon="0.62376">
        <ele>73</ele>
        <time>2005-09-05T12:15:58Z</time>
      </trkpt>
      <trkpt lat="44.13971" lon="0.62364">
        <ele>69</ele>
        <time>2005-09-05T12:15:58Z</time>
      </trkpt>
      <trkpt lat="44.13984" lon="0.62367">
        <ele>68</ele>
        <time>2005-09-05T12:15:58Z</time>
      </trkpt>
      <trkpt lat="44.14029" lon="0.62386">
        <ele>65</ele>
        <time>2005-09-05T12:15:58Z</time>
      </trkpt>
      <trkpt lat="44.14056" lon="0.62405">
        <ele>64</ele>
        <time>2005-09-05T12:15:58Z</time>
      </trkpt>
      <trkpt lat="44.14068" lon="0.62428">
        <ele>62</ele>
        <time>2005-09-05T12:15:58Z</time>
      </trkpt>
      <trkpt lat="44.14076" lon="0.62456">
        <ele>63</ele>
        <time>2005-09-05T12:15:58Z</time>
      </trkpt>
      <trkpt lat="44.14088" lon="0.62481">
        <ele>63</ele>
        <time>2005-09-05T12:15:58Z</time>
      </trkpt>
      <trkpt lat="44.14107" lon="0.62504">
        <ele>64</ele>
        <time>2005-09-05T12:15:58Z</time>
      </trkpt>
      <trkpt lat="44.14122" lon="0.62519">
        <ele>66</ele>
        <time>2005-09-05T12:15:58Z</time>
      </trkpt>
      <trkpt lat="44.14143" lon="0.62534">
        <ele>69</ele>
        <time>2005-09-05T12:15:58Z</time>
      </trkpt>
      <trkpt lat="44.14167" lon="0.62539">
        <ele>72</ele>
        <time>2005-09-05T12:15:58Z</time>
      </trkpt>
      <trkpt lat="44.14194" lon="0.62539">
        <ele>75</ele>
        <time>2005-09-05T12:15:58Z</time>
      </trkpt>
      <trkpt lat="44.14232" lon="0.6252">
        <ele>76</ele>
        <time>2005-09-05T12:15:58Z</time>
      </trkpt>
      <trkpt lat="44.14263" lon="0.62513">
        <ele>77</ele>
        <time>2005-09-05T12:15:58Z</time>
      </trkpt>
      <trkpt lat="44.1431" lon="0.62515">
        <ele>81</ele>
        <time>2005-09-05T12:15:58Z</time>
      </trkpt>
      <trkpt lat="44.14333" lon="0.62514">
        <ele>81</ele>
        <time>2005-09-05T12:15:58Z</time>
      </trkpt>
      <trkpt lat="44.14365" lon="0.62505">
        <ele>79</ele>
        <time>2005-09-05T12:15:58Z</time>
      </trkpt>
      <trkpt lat="44.14394" lon="0.625">
        <ele>77</ele>
        <time>2005-09-05T12:15:58Z</time>
      </trkpt>
      <trkpt lat="44.14427" lon="0.62513">
        <ele>78</ele>
        <time>2005-09-05T12:15:58Z</time>
      </trkpt>
      <trkpt lat="44.14453" lon="0.62523">
        <ele>79</ele>
        <time>2005-09-05T12:15:58Z</time>
      </trkpt>
      <trkpt lat="44.14476" lon="0.62539">
        <ele>82</ele>
        <time>2005-09-05T12:15:58Z</time>
      </trkpt>
      <trkpt lat="44.14491" lon="0.62539">
        <ele>81</ele>
        <time>2005-09-05T12:15:58Z</time>
      </trkpt>
      <trkpt lat="44.14522" lon="0.62538">
        <ele>79</ele>
        <time>2005-09-05T12:15:58Z</time>
      </trkpt>
      <trkpt lat="44.14558" lon="0.62532">
        <ele>75</ele>
        <time>2005-09-05T12:15:58Z</time>
      </trkpt>
      <trkpt lat="44.14584" lon="0.62533">
        <ele>73</ele>
        <time>2005-09-05T12:15:58Z</time>
      </trkpt>
      <trkpt lat="44.14611" lon="0.62542">
        <ele>70</ele>
        <time>2005-09-05T12:15:58Z</time>
      </trkpt>
      <trkpt lat="44.14624" lon="0.62507">
        <ele>64</ele>
        <time>2005-09-05T12:15:58Z</time>
      </trkpt>
      <trkpt lat="44.14649" lon="0.62436">
        <ele>57</ele>
        <time>2005-09-05T12:15:58Z</time>
      </trkpt>
      <trkpt lat="44.14696" lon="0.62341">
        <ele>57</ele>
        <time>2005-09-05T12:15:58Z</time>
      </trkpt>
      <trkpt lat="44.14723" lon="0.62292">
        <ele>58</ele>
        <time>2005-09-05T12:15:58Z</time>
      </trkpt>
      <trkpt lat="44.14747" lon="0.62255">
        <ele>61</ele>
        <time>2005-09-05T12:15:58Z</time>
      </trkpt>
      <trkpt lat="44.14765" lon="0.62231">
        <ele>63</ele>
        <time>2005-09-05T12:15:58Z</time>
      </trkpt>
      <trkpt lat="44.14778" lon="0.62212">
        <ele>65</ele>
        <time>2005-09-05T12:15:58Z</time>
      </trkpt>
      <trkpt lat="44.14795" lon="0.62193">
        <ele>68</ele>
        <time>2005-09-05T12:15:58Z</time>
      </trkpt>
      <trkpt lat="44.14812" lon="0.62173">
        <ele>71</ele>
        <time>2005-09-05T12:15:58Z</time>
      </trkpt>
      <trkpt lat="44.14831" lon="0.62152">
        <ele>75</ele>
        <time>2005-09-05T12:15:58Z</time>
      </trkpt>
      <trkpt lat="44.14815" lon="0.62053">
        <ele>82</ele>
        <time>2005-09-05T12:15:58Z</time>
      </trkpt>
      <trkpt lat="44.14797" lon="0.62057">
        <ele>83</ele>
        <time>2005-09-05T12:15:58Z</time>
      </trkpt>
      <trkpt lat="44.14776" lon="0.6206">
        <ele>83</ele>
        <time>2005-09-05T12:15:58Z</time>
      </trkpt>
      <trkpt lat="44.14743" lon="0.6193">
        <ele>94</ele>
        <time>2005-09-05T12:15:58Z</time>
      </trkpt>
      <trkpt lat="44.14731" lon="0.61904">
        <ele>97</ele>
        <time>2005-09-05T12:15:58Z</time>
      </trkpt>
      <trkpt lat="44.14719" lon="0.61881">
        <ele>101</ele>
        <time>2005-09-05T12:15:58Z</time>
      </trkpt>
      <trkpt lat="44.14697" lon="0.61844">
        <ele>107</ele>
        <time>2005-09-05T12:15:58Z</time>
      </trkpt>
      <trkpt lat="44.14683" lon="0.6182">
        <ele>111</ele>
        <time>2005-09-05T12:15:58Z</time>
      </trkpt>
      <trkpt lat="44.14639" lon="0.61729">
        <ele>126</ele>
        <time>2005-09-05T12:15:58Z</time>
      </trkpt>
      <trkpt lat="44.14615" lon="0.61661">
        <ele>134</ele>
        <time>2005-09-05T12:15:58Z</time>
      </trkpt>
      <trkpt lat="44.1461" lon="0.61641">
        <ele>136</ele>
        <time>2005-09-05T12:15:58Z</time>
      </trkpt>
      <trkpt lat="44.14569" lon="0.61531">
        <ele>143</ele>
        <time>2005-09-05T12:15:58Z</time>
      </trkpt>
      <trkpt lat="44.14549" lon="0.61493">
        <ele>143</ele>
        <time>2005-09-05T12:15:58Z</time>
      </trkpt>
      <trkpt lat="44.14533" lon="0.61471">
        <ele>143</ele>
        <time>2005-09-05T12:15:58Z</time>
      </trkpt>
      <trkpt lat="44.14512" lon="0.61452">
        <ele>143</ele>
        <time>2005-09-05T12:15:58Z</time>
      </trkpt>
      <trkpt lat="44.14481" lon="0.61434">
        <ele>144</ele>
        <time>2005-09-05T12:15:58Z</time>
      </trkpt>
      <trkpt lat="44.14456" lon="0.6143">
        <ele>145</ele>
        <time>2005-09-05T12:15:58Z</time>
      </trkpt>
      <trkpt lat="44.14384" lon="0.61428">
        <ele>148</ele>
        <time>2005-09-05T12:15:58Z</time>
      </trkpt>
      <trkpt lat="44.14353" lon="0.61422">
        <ele>150</ele>
        <time>2005-09-05T12:15:58Z</time>
      </trkpt>
      <trkpt lat="44.14332" lon="0.61415">
        <ele>151</ele>
        <time>2005-09-05T12:15:58Z</time>
      </trkpt>
      <trkpt lat="44.14314" lon="0.61397">
        <ele>151</ele>
        <time>2005-09-05T12:15:58Z</time>
      </trkpt>
      <trkpt lat="44.14293" lon="0.61387">
        <ele>151</ele>
        <time>2005-09-05T12:15:58Z</time>
      </trkpt>
      <trkpt lat="44.1425" lon="0.61374">
        <ele>149</ele>
        <time>2005-09-05T12:15:58Z</time>
      </trkpt>
      <trkpt lat="44.14239" lon="0.6137">
        <ele>148</ele>
        <time>2005-09-05T12:15:58Z</time>
      </trkpt>
      <trkpt lat="44.14246" lon="0.61335">
        <ele>148</ele>
        <time>2005-09-05T12:15:58Z</time>
      </trkpt>
      <trkpt lat="44.14243" lon="0.61313">
        <ele>148</ele>
        <time>2005-09-05T12:15:58Z</time>
      </trkpt>
      <trkpt lat="44.14224" lon="0.61265">
        <ele>148</ele>
        <time>2005-09-05T12:15:58Z</time>
      </trkpt>
      <trkpt lat="44.14202" lon="0.6121">
        <ele>147</ele>
        <time>2005-09-05T12:15:58Z</time>
      </trkpt>
      <trkpt lat="44.14192" lon="0.6116">
        <ele>148</ele>
        <time>2005-09-05T12:15:58Z</time>
      </trkpt>
      <trkpt lat="44.14187" lon="0.61079">
        <ele>150</ele>
        <time>2005-09-05T12:15:58Z</time>
      </trkpt>
      <trkpt lat="44.1418" lon="0.60976">
        <ele>153</ele>
        <time>2005-09-05T12:15:58Z</time>
      </trkpt>
      <trkpt lat="44.14173" lon="0.60961">
        <ele>154</ele>
        <time>2005-09-05T12:15:58Z</time>
      </trkpt>
      <trkpt lat="44.14161" lon="0.60936">
        <ele>154</ele>
        <time>2005-09-05T12:15:58Z</time>
      </trkpt>
      <trkpt lat="44.14152" lon="0.60915">
        <ele>154</ele>
        <time>2005-09-05T12:15:58Z</time>
      </trkpt>
      <trkpt lat="44.1415" lon="0.60901">
        <ele>154</ele>
        <time>2005-09-05T12:15:58Z</time>
      </trkpt>
    </trkseg>
  </trk>
</gpx>